Time,TemperatureF,DewpointF,PressureIn,WindDirection,WindDirectionDegrees,WindSpeedMPH,WindSpeedGustMPH,Humidity,HourlyPrecipIn,Conditions,Clouds,dailyrainin,SoftwareType,DateUTC
2013-03-08 01:25:00,-999.0,-99.9,0.00,North,-999,-999.0,-999.0,-999,-99.99,,,0.00,weatherlink.com 1.10,2013-03-08 09:25:00,
2013-03-08 01:40:00,-999.0,-99.9,0.00,North,-999,-999.0,-999.0,-999,-99.99,,,0.00,weatherlink.com 1.10,2013-03-08 09:40:00,
2013-03-08 01:55:00,-999.0,-99.9,0.00,North,-999,-999.0,-999.0,-999,-99.99,,,0.00,weatherlink.com 1.10,2013-03-08 09:55:00,
2013-03-08 02:10:00,-999.0,-99.9,0.00,North,-999,-999.0,-999.0,-999,-99.99,,,0.00,weatherlink.com 1.10,2013-03-08 10:10:00,
2013-03-08 02:25:00,-999.0,-99.9,0.00,North,-999,-999.0,-999.0,-999,-99.99,,,0.00,weatherlink.com 1.10,2013-03-08 10:25:00,
2013-03-08 02:40:00,-999.0,-99.9,0.00,North,-999,-999.0,-999.0,-999,-99.99,,,0.00,weatherlink.com 1.10,2013-03-08 10:40:00,
2013-03-08 02:55:00,-999.0,-99.9,0.00,North,-999,-999.0,-999.0,-999,-99.99,,,0.00,weatherlink.com 1.10,2013-03-08 10:55:00,
2013-03-08 03:10:00,-999.0,-99.9,0.00,North,-999,-999.0,-999.0,-999,-99.99,,,0.00,weatherlink.com 1.10,2013-03-08 11:10:00,
2013-03-08 03:25:00,-999.0,-99.9,0.00,North,-999,-999.0,-999.0,-999,-99.99,,,0.00,weatherlink.com 1.10,2013-03-08 11:25:00,
2013-03-08 03:40:00,-999.0,-99.9,0.00,North,-999,-999.0,-999.0,-999,-99.99,,,0.00,weatherlink.com 1.10,2013-03-08 11:40:00,
2013-03-08 03:55:00,-999.0,-99.9,0.00,North,-999,-999.0,-999.0,-999,-99.99,,,0.00,weatherlink.com 1.10,2013-03-08 11:55:00,
2013-03-08 04:10:00,-999.0,-99.9,0.00,North,-999,-999.0,-999.0,-999,-99.99,,,0.00,weatherlink.com 1.10,2013-03-08 12:10:00,
2013-03-08 04:25:00,-999.0,-99.9,0.00,North,-999,-999.0,-999.0,-999,-99.99,,,0.00,weatherlink.com 1.10,2013-03-08 12:25:00,
2013-03-08 04:40:00,-999.0,-99.9,0.00,North,-999,-999.0,-999.0,-999,-99.99,,,0.00,weatherlink.com 1.10,2013-03-08 12:40:00,
2013-03-08 04:55:00,-999.0,-99.9,0.00,North,-999,-999.0,-999.0,-999,-99.99,,,0.00,weatherlink.com 1.10,2013-03-08 12:55:00,
2013-03-08 05:10:00,-999.0,-99.9,0.00,North,-999,-999.0,-999.0,-999,-99.99,,,0.00,weatherlink.com 1.10,2013-03-08 13:10:00,
2013-03-08 05:25:00,-999.0,-99.9,0.00,North,-999,-999.0,-999.0,-999,-99.99,,,0.00,weatherlink.com 1.10,2013-03-08 13:25:00,
2013-03-08 05:40:00,-999.0,-99.9,0.00,North,-999,-999.0,-999.0,-999,-99.99,,,0.00,weatherlink.com 1.10,2013-03-08 13:40:00,
2013-03-08 05:55:00,-999.0,-99.9,0.00,North,-999,-999.0,-999.0,-999,-99.99,,,0.00,weatherlink.com 1.10,2013-03-08 13:55:00,
2013-03-08 06:10:00,-999.0,-99.9,0.00,North,-999,-999.0,-999.0,-999,-99.99,,,0.00,weatherlink.com 1.10,2013-03-08 14:10:00,
2013-03-08 06:25:00,-999.0,-99.9,0.00,North,-999,-999.0,-999.0,-999,-99.99,,,0.00,weatherlink.com 1.10,2013-03-08 14:25:00,
2013-03-08 06:40:00,-999.0,-99.9,0.00,North,-999,-999.0,-999.0,-999,-99.99,,,0.00,weatherlink.com 1.10,2013-03-08 14:40:00,
2013-03-08 06:55:00,-999.0,-99.9,0.00,North,-999,-999.0,-999.0,-999,-99.99,,,0.00,weatherlink.com 1.10,2013-03-08 14:55:00,
2013-03-08 07:10:00,-999.0,-99.9,0.00,North,-999,-999.0,-999.0,-999,-99.99,,,0.00,weatherlink.com 1.10,2013-03-08 15:10:00,
2013-03-08 07:25:00,-999.0,-99.9,0.00,North,-999,-999.0,-999.0,-999,-99.99,,,0.00,weatherlink.com 1.10,2013-03-08 15:25:00,
2013-03-08 07:40:00,-999.0,-99.9,0.00,North,-999,-999.0,-999.0,-999,-99.99,,,0.00,weatherlink.com 1.10,2013-03-08 15:40:00,
2013-03-08 07:55:00,-999.0,-99.9,0.00,North,-999,-999.0,-999.0,-999,-99.99,,,0.00,weatherlink.com 1.10,2013-03-08 15:55:00,
2013-03-08 08:10:00,40.7,38.0,29.94,North,360,0.0,-999.0,90,-99.99,,,0.00,weatherlink.com 1.10,2013-03-08 16:10:00,
2013-03-08 08:25:00,40.9,38.0,29.94,North,360,0.0,-999.0,90,-99.99,,,0.00,weatherlink.com 1.10,2013-03-08 16:25:00,
2013-03-08 08:40:00,41.9,39.0,29.95,NNE,18,0.0,-999.0,90,-99.99,,,0.00,weatherlink.com 1.10,2013-03-08 16:40:00,
2013-03-08 08:55:00,42.5,40.0,29.96,West,273,0.0,-999.0,90,-99.99,,,0.00,weatherlink.com 1.10,2013-03-08 16:55:00,
2013-03-08 09:10:00,45.0,42.0,29.96,West,269,0.0,-999.0,90,-99.99,,,0.00,weatherlink.com 1.10,2013-03-08 17:10:00,
2013-03-08 09:25:00,45.9,42.0,29.97,SSW,207,0.0,-999.0,87,-99.99,,,0.00,weatherlink.com 1.10,2013-03-08 17:25:00,
2013-03-08 09:40:00,43.4,40.0,29.97,WSW,245,0.0,-999.0,86,-99.99,,,0.00,weatherlink.com 1.10,2013-03-08 17:40:00,
2013-03-08 09:55:00,43.8,40.0,29.97,WSW,246,0.0,-999.0,86,-99.99,,,0.00,weatherlink.com 1.10,2013-03-08 17:55:00,
2013-03-08 10:10:00,44.1,41.0,29.98,WSW,245,0.0,-999.0,89,-99.99,,,0.00,weatherlink.com 1.10,2013-03-08 18:10:00,
2013-03-08 10:25:00,45.4,42.0,29.98,West,273,0.0,-999.0,87,-99.99,,,0.00,weatherlink.com 1.10,2013-03-08 18:25:00,
2013-03-08 10:40:00,44.3,42.0,29.99,West,273,0.0,-999.0,90,-99.99,,,0.00,weatherlink.com 1.10,2013-03-08 18:40:00,
2013-03-08 10:55:00,45.5,43.0,29.99,West,266,0.0,-999.0,90,-99.99,,,0.00,weatherlink.com 1.10,2013-03-08 18:55:00,
2013-03-08 11:10:00,48.9,46.0,29.99,West,265,0.0,-999.0,89,-99.99,,,0.00,weatherlink.com 1.10,2013-03-08 19:10:00,
2013-03-08 11:25:00,48.7,45.0,29.99,WSW,255,0.0,-999.0,86,-99.99,,,0.00,weatherlink.com 1.10,2013-03-08 19:25:00,
2013-03-08 11:40:00,49.2,45.0,29.99,WSW,241,0.0,-999.0,86,-99.99,,,0.00,weatherlink.com 1.10,2013-03-08 19:40:00,
2013-03-08 11:55:00,49.6,46.0,29.99,WSW,257,2.0,-999.0,86,-99.99,,,0.00,weatherlink.com 1.10,2013-03-08 19:55:00,
2013-03-08 12:10:00,50.2,46.0,29.99,WSW,254,0.0,-999.0,85,-99.99,,,0.00,weatherlink.com 1.10,2013-03-08 20:10:00,
2013-03-08 12:25:00,51.1,46.0,29.99,West,267,0.0,-999.0,84,-99.99,,,0.00,weatherlink.com 1.10,2013-03-08 20:25:00,
2013-03-08 12:40:00,50.0,45.0,29.98,WSW,256,0.0,-999.0,82,-99.99,,,0.00,weatherlink.com 1.10,2013-03-08 20:40:00,
2013-03-08 12:55:00,51.6,46.0,29.98,WSW,246,0.0,-999.0,82,-99.99,,,0.00,weatherlink.com 1.10,2013-03-08 20:55:00,
2013-03-08 13:10:00,50.3,44.0,29.98,SW,232,3.0,-999.0,80,-99.99,,,0.00,weatherlink.com 1.10,2013-03-08 21:10:00,
2013-03-08 13:40:00,51.4,45.0,29.98,SSE,156,2.0,-999.0,78,-99.99,,,0.00,weatherlink.com 1.10,2013-03-08 21:40:00,
2013-03-08 13:55:00,51.0,43.0,29.98,SW,225,3.0,-999.0,75,-99.99,,,0.00,weatherlink.com 1.10,2013-03-08 21:55:00,
2013-03-08 14:10:00,51.3,44.0,29.98,WSW,250,4.0,-999.0,75,-99.99,,,0.00,weatherlink.com 1.10,2013-03-08 22:10:00,
2013-03-08 14:25:00,50.1,44.0,29.98,WSW,244,0.0,-999.0,78,-99.99,,,0.00,weatherlink.com 1.10,2013-03-08 22:25:00,
2013-03-08 14:40:00,49.9,44.0,29.99,West,259,3.0,-999.0,80,-99.99,,,0.00,weatherlink.com 1.10,2013-03-08 22:40:00,
2013-03-08 14:55:00,49.3,43.0,29.99,West,267,3.0,-999.0,79,-99.99,,,0.00,weatherlink.com 1.10,2013-03-08 22:55:00,
2013-03-08 15:10:00,49.4,43.0,30.00,SW,236,3.0,-999.0,79,-99.99,,,0.00,weatherlink.com 1.10,2013-03-08 23:10:00,
2013-03-08 15:25:00,49.3,43.0,30.00,SW,233,2.0,-999.0,78,-99.99,,,0.00,weatherlink.com 1.10,2013-03-08 23:25:00,
2013-03-08 15:40:00,48.8,42.0,30.00,WSW,255,1.0,-999.0,78,-99.99,,,0.00,weatherlink.com 1.10,2013-03-08 23:40:00,
2013-03-08 15:55:00,50.2,43.0,30.01,SW,231,0.0,-999.0,77,-99.99,,,0.00,weatherlink.com 1.10,2013-03-08 23:55:00,
2013-03-08 16:10:00,49.6,41.0,30.00,WSW,242,0.0,-999.0,72,-99.99,,,0.00,weatherlink.com 1.10,2013-03-09 00:10:00,
2013-03-08 16:25:00,50.1,41.0,30.01,West,270,0.0,-999.0,71,-99.99,,,0.00,weatherlink.com 1.10,2013-03-09 00:25:00,
2013-03-08 16:40:00,49.9,40.0,30.01,West,269,0.0,-999.0,69,-99.99,,,0.00,weatherlink.com 1.10,2013-03-09 00:40:00,
2013-03-08 16:55:00,48.3,40.0,30.02,WNW,287,1.0,-999.0,72,-99.99,,,0.00,weatherlink.com 1.10,2013-03-09 00:55:00,
2013-03-08 17:10:00,46.8,38.0,30.02,West,260,0.0,-999.0,72,-99.99,,,0.00,weatherlink.com 1.10,2013-03-09 01:10:00,
2013-03-08 17:25:00,45.0,37.0,30.03,East,83,3.0,-999.0,73,-99.99,,,0.00,weatherlink.com 1.10,2013-03-09 01:25:00,
2013-03-08 17:40:00,43.8,36.0,30.05,SW,229,0.0,-999.0,75,-99.99,,,0.00,weatherlink.com 1.10,2013-03-09 01:40:00,
2013-03-08 17:55:00,42.3,36.0,30.06,South,171,0.0,-999.0,78,-99.99,,,0.00,weatherlink.com 1.10,2013-03-09 01:55:00,
2013-03-08 18:10:00,41.5,35.0,30.06,West,263,0.0,-999.0,79,-99.99,,,0.00,weatherlink.com 1.10,2013-03-09 02:10:00,
2013-03-08 18:25:00,41.1,35.0,30.08,SW,232,4.0,-999.0,79,-99.99,,,0.00,weatherlink.com 1.10,2013-03-09 02:25:00,
2013-03-08 18:40:00,41.0,35.0,30.08,West,275,0.0,-999.0,80,-99.99,,,0.00,weatherlink.com 1.10,2013-03-09 02:40:00,
2013-03-08 18:55:00,40.8,35.0,30.09,WSW,257,0.0,-999.0,81,-99.99,,,0.00,weatherlink.com 1.10,2013-03-09 02:55:00,
2013-03-08 19:10:00,40.9,35.0,30.10,ENE,76,0.0,-999.0,80,-99.99,,,0.00,weatherlink.com 1.10,2013-03-09 03:10:00,
2013-03-08 19:25:00,41.3,36.0,30.11,West,268,0.0,-999.0,80,-99.99,,,0.00,weatherlink.com 1.10,2013-03-09 03:25:00,
2013-03-08 19:40:00,41.4,36.0,30.11,West,277,0.0,-999.0,80,-99.99,,,0.00,weatherlink.com 1.10,2013-03-09 03:40:00,
2013-03-08 19:55:00,41.2,36.0,30.12,WSW,256,0.0,-999.0,80,-99.99,,,0.00,weatherlink.com 1.10,2013-03-09 03:55:00,
2013-03-08 20:10:00,41.1,35.0,30.12,South,179,0.0,-999.0,79,-99.99,,,0.00,weatherlink.com 1.10,2013-03-09 04:10:00,
2013-03-08 20:25:00,40.9,35.0,30.13,West,265,0.0,-999.0,79,-99.99,,,0.00,weatherlink.com 1.10,2013-03-09 04:25:00,
2013-03-08 20:40:00,40.9,35.0,30.14,WSW,256,2.0,-999.0,79,-99.99,,,0.00,weatherlink.com 1.10,2013-03-09 04:40:00,
2013-03-08 20:55:00,41.0,35.0,30.14,West,265,6.0,-999.0,79,-99.99,,,0.00,weatherlink.com 1.10,2013-03-09 04:55:00,
2013-03-08 21:10:00,41.1,36.0,30.14,SW,230,3.0,-999.0,81,-99.99,,,0.00,weatherlink.com 1.10,2013-03-09 05:10:00,
2013-03-08 21:25:00,41.1,36.0,30.14,West,271,0.0,-999.0,81,-99.99,,,0.00,weatherlink.com 1.10,2013-03-09 05:25:00,
2013-03-08 21:40:00,41.1,36.0,30.15,West,267,0.0,-999.0,81,-99.99,,,0.00,weatherlink.com 1.10,2013-03-09 05:40:00,
2013-03-08 21:55:00,41.1,36.0,30.15,WSW,257,0.0,-999.0,81,-99.99,,,0.00,weatherlink.com 1.10,2013-03-09 05:55:00,
2013-03-08 22:10:00,40.9,36.0,30.15,SSW,213,3.0,-999.0,82,-99.99,,,0.00,weatherlink.com 1.10,2013-03-09 06:10:00,
2013-03-08 22:25:00,40.7,36.0,30.16,NNE,15,0.0,-999.0,83,-99.99,,,0.00,weatherlink.com 1.10,2013-03-09 06:25:00,
2013-03-08 22:40:00,40.7,36.0,30.16,WSW,251,0.0,-999.0,82,-99.99,,,0.00,weatherlink.com 1.10,2013-03-09 06:40:00,
2013-03-08 22:55:00,40.7,36.0,30.16,WSW,241,3.0,-999.0,82,-99.99,,,0.00,weatherlink.com 1.10,2013-03-09 06:55:00,
2013-03-08 23:10:00,40.8,36.0,30.17,West,263,0.0,-999.0,82,-99.99,,,0.00,weatherlink.com 1.10,2013-03-09 07:10:00,
2013-03-08 23:25:00,40.7,36.0,30.17,West,265,0.0,-999.0,83,-99.99,,,0.00,weatherlink.com 1.10,2013-03-09 07:25:00,
2013-03-08 23:40:00,40.6,36.0,30.17,North,5,0.0,-999.0,82,-99.99,,,0.00,weatherlink.com 1.10,2013-03-09 07:40:00,